Tiempo cada hora Oviedo

Hoy, 1 Noviembre, Domingo

Tiempo Temperatura Precipitaciones Viento Presión Humedad
00:00 +18°C° 0 mm 2 mps 750 mmHg 74%
01:00 +18°C° 0 mm 2 mps 750 mmHg 74%
02:00 +18°C° 0 mm 2 mps 750 mmHg 74%
03:00 +18°C° 0 mm 3 mps 750 mmHg 74%
04:00 +18°C° 0 mm 2 mps 750 mmHg 74%
05:00 +18°C° 0 mm 2 mps 750 mmHg 74%
06:00 +18°C° 0 mm 2 mps 750 mmHg 74%
07:00 +18°C° 0 mm 2 mps 750 mmHg 74%
08:00 +19°C° 0 mm 2 mps 750 mmHg 73%
09:00 +19°C° 0 mm 2 mps 750 mmHg 72%
10:00 +20°C° 0 mm 2 mps 750 mmHg 72%
11:00 +20°C° 0 mm 2 mps 750 mmHg 72%
12:00 +20°C° 0 mm 2 mps 750 mmHg 72%
13:00 +22°C° 0 mm 1 mps 750 mmHg 71%
14:00 +22°C° 0 mm 1 mps 749 mmHg 71%
15:00 +22°C° 0 mm 1 mps 749 mmHg 71%
16:00 +21°C° 0 mm 1 mps 749 mmHg 74%
17:00 +20°C° 0 mm 2 mps 749 mmHg 77%
18:00 +19°C° 0 mm 2 mps 749 mmHg 79%
19:00 +18°C° 0 mm 2 mps 749 mmHg 80%
20:00 +18°C° 0 mm 2 mps 749 mmHg 81%
21:00 +17°C° 0 mm 2 mps 749 mmHg 81%
22:00 +17°C° 0 mm 2 mps 749 mmHg 82%
23:00 +17°C° 0 mm 2 mps 749 mmHg 82%

Mañana, 2 Noviembre, Lunes

Tiempo Temperatura Precipitaciones Viento Presión Humedad
00:00 +17°C° 0 mm 2 mps 749 mmHg 83%
01:00 +17°C° 0 mm 2 mps 748 mmHg 83%
02:00 +16°C° 0 mm 2 mps 748 mmHg 83%
03:00 +16°C° 0 mm 2 mps 748 mmHg 83%
04:00 +16°C° 0 mm 2 mps 748 mmHg 83%
05:00 +16°C° 0 mm 2 mps 748 mmHg 82%
06:00 +16°C° 0 mm 3 mps 748 mmHg 82%
07:00 +17°C° 0 mm 3 mps 748 mmHg 77%
08:00 +18°C° 0 mm 3 mps 749 mmHg 72%
09:00 +20°C° 0 mm 3 mps 749 mmHg 67%
10:00 +19°C° 0.3 mm 3 mps 750 mmHg 75%
11:00 +18°C° 0.3 mm 3 mps 750 mmHg 83%
12:00 +17°C° 0.3 mm 3 mps 750 mmHg 91%
13:00 +16°C° 1.1 mm 3 mps 750 mmHg 93%
14:00 +14°C° 1.1 mm 3 mps 751 mmHg 94%
15:00 +14°C° 1.1 mm 2 mps 751 mmHg 96%
16:00 +14°C° 0.9 mm 2 mps 752 mmHg 96%
17:00 +13°C° 0.9 mm 2 mps 752 mmHg 96%
18:00 +13°C° 0.9 mm 2 mps 752 mmHg 96%
19:00 +12°C° 0.1 mm 1 mps 753 mmHg 95%
20:00 +12°C° 0.1 mm 1 mps 754 mmHg 95%
21:00 +12°C° 0.1 mm 1 mps 754 mmHg 94%
22:00 +12°C° 0 mm 1 mps 754 mmHg 93%
23:00 +12°C° 0 mm 1 mps 755 mmHg 92%

Pasado mañana, 3 Noviembre, Martes

Tiempo Temperatura Precipitaciones Viento Presión Humedad
00:00 +12°C° 0 mm 1 mps 755 mmHg 91%
01:00 +12°C° 0 mm 1 mps 755 mmHg 91%
02:00 +12°C° 0 mm 1 mps 755 mmHg 91%
03:00 +12°C° 0 mm 1 mps 755 mmHg 90%
04:00 +11°C° 0 mm 1 mps 755 mmHg 91%
05:00 +11°C° 0 mm 1 mps 756 mmHg 91%
06:00 +10°C° 0 mm 1 mps 756 mmHg 92%
07:00 +11°C° 0 mm 1 mps 756 mmHg 89%
08:00 +11°C° 0 mm 1 mps 756 mmHg 87%
09:00 +12°C° 0 mm 1 mps 757 mmHg 85%
10:00 +13°C° 0 mm 1 mps 757 mmHg 77%
11:00 +14°C° 0 mm 1 mps 757 mmHg 69%
12:00 +15°C° 0 mm 2 mps 757 mmHg 62%
13:00 +14°C° 0.2 mm 2 mps 757 mmHg 69%
14:00 +13°C° 0.2 mm 2 mps 757 mmHg 76%
15:00 +11°C° 0.2 mm 3 mps 757 mmHg 84%
16:00 +11°C° 0.3 mm 3 mps 757 mmHg 87%
17:00 +10°C° 0.3 mm 2 mps 757 mmHg 90%
18:00 +10°C° 0.3 mm 2 mps 757 mmHg 93%
19:00 +10°C° 0.1 mm 2 mps 757 mmHg 93%
20:00 +9°C° 0.1 mm 2 mps 757 mmHg 93%
21:00 +9°C° 0.1 mm 2 mps 758 mmHg 93%
22:00 +10°C° 0.2 mm 1 mps 757 mmHg 93%
23:00 +10°C° 0.2 mm 1 mps 757 mmHg 93%

4 Noviembre, Miércoles

Tiempo Temperatura Precipitaciones Viento Presión Humedad
00:00 +10°C° 0.2 mm 1 mps 757 mmHg 93%
01:00 +9°C° 0.3 mm 2 mps 756 mmHg 94%
02:00 +9°C° 0.3 mm 2 mps 756 mmHg 94%
03:00 +8°C° 0.3 mm 2 mps 756 mmHg 94%
04:00 +8°C° 0.4 mm 2 mps 755 mmHg 94%
05:00 +8°C° 0.4 mm 2 mps 755 mmHg 95%
06:00 +8°C° 0.4 mm 2 mps 754 mmHg 95%
07:00 +8°C° 0.5 mm 2 mps 754 mmHg 94%
08:00 +8°C° 0.5 mm 2 mps 754 mmHg 93%
09:00 +8°C° 0.5 mm 2 mps 753 mmHg 92%
10:00 +9°C° 0.3 mm 2 mps 753 mmHg 90%
11:00 +10°C° 0.3 mm 1 mps 753 mmHg 87%
12:00 +11°C° 0.3 mm 1 mps 752 mmHg 85%
13:00 +9°C° 0.3 mm 2 mps 752 mmHg 85%
14:00 +9°C° 0.3 mm 2 mps 751 mmHg 85%
15:00 +9°C° 0.3 mm 2 mps 751 mmHg 85%
16:00 +9°C° 0.2 mm 2 mps 750 mmHg 87%
17:00 +8°C° 0.2 mm 2 mps 750 mmHg 88%
18:00 +7°C° 0.2 mm 2 mps 750 mmHg 90%
19:00 +7°C° 0.2 mm 2 mps 750 mmHg 91%
20:00 +7°C° 0.2 mm 2 mps 750 mmHg 91%
21:00 +7°C° 0.2 mm 2 mps 750 mmHg 92%
22:00 +7°C° 0.2 mm 2 mps 750 mmHg 93%
23:00 +6°C° 0.2 mm 2 mps 749 mmHg 93%

5 Noviembre, Jueves

Tiempo Temperatura Precipitaciones Viento Presión Humedad
00:00 +5°C° 0.2 mm 3 mps 749 mmHg 94%
01:00 +6°C° 0 mm 2 mps 748 mmHg 93%
02:00 +6°C° 0 mm 2 mps 748 mmHg 92%
03:00 +6°C° 0 mm 2 mps 747 mmHg 91%
04:00 +6°C° 0 mm 2 mps 747 mmHg 90%
05:00 +6°C° 0 mm 2 mps 747 mmHg 90%
06:00 +6°C° 0 mm 2 mps 747 mmHg 90%
07:00 +6°C° 0.2 mm 2 mps 747 mmHg 90%
08:00 +7°C° 0.2 mm 2 mps 746 mmHg 90%
09:00 +8°C° 0.2 mm 2 mps 746 mmHg 90%
10:00 +9°C° 0.1 mm 3 mps 746 mmHg 87%
11:00 +11°C° 0.1 mm 3 mps 745 mmHg 83%
12:00 +12°C° 0.1 mm 3 mps 745 mmHg 80%
13:00 +12°C° 0.1 mm 3 mps 744 mmHg 81%
14:00 +13°C° 0.1 mm 3 mps 744 mmHg 82%
15:00 +13°C° 0.1 mm 3 mps 743 mmHg 83%
16:00 +12°C° 0.5 mm 3 mps 743 mmHg 86%
17:00 +12°C° 0.5 mm 3 mps 743 mmHg 90%
18:00 +12°C° 0.5 mm 3 mps 743 mmHg 93%
19:00 +12°C° 0.6 mm 3 mps 743 mmHg 93%
20:00 +12°C° 0.6 mm 3 mps 743 mmHg 94%
21:00 +11°C° 0.6 mm 3 mps 743 mmHg 94%
22:00 +11°C° 0 mm 3 mps 743 mmHg 94%
23:00 +12°C° 0 mm 2 mps 743 mmHg 94%

6 Noviembre, Viernes

Tiempo Temperatura Precipitaciones Viento Presión Humedad
00:00 +12°C° 0 mm 2 mps 743 mmHg 94%
01:00 +12°C° 0 mm 2 mps 742 mmHg 93%
02:00 +12°C° 0 mm 2 mps 742 mmHg 92%
03:00 +12°C° 0 mm 2 mps 742 mmHg 91%
04:00 +13°C° 0.5 mm 2 mps 741 mmHg 91%
05:00 +13°C° 0.5 mm 2 mps 741 mmHg 91%
06:00 +14°C° 0.5 mm 2 mps 740 mmHg 91%
07:00 +14°C° 1.4 mm 2 mps 740 mmHg 92%
08:00 +14°C° 1.4 mm 2 mps 740 mmHg 93%
09:00 +14°C° 1.4 mm 2 mps 740 mmHg 94%
10:00 +15°C° 0 mm 1 mps 740 mmHg 86%
11:00 +18°C° 0 mm 1 mps 739 mmHg 79%
12:00 +19°C° 0 mm 1 mps 739 mmHg 72%
13:00 +19°C° 0.3 mm 1 mps 739 mmHg 76%
14:00 +18°C° 0.3 mm 1 mps 738 mmHg 80%
15:00 +18°C° 0.3 mm 1 mps 738 mmHg 83%
16:00 +16°C° 1 mm 1 mps 738 mmHg 88%
17:00 +15°C° 1 mm 2 mps 737 mmHg 92%
18:00 +14°C° 1 mm 2 mps 737 mmHg 96%
19:00 +14°C° 0.2 mm 2 mps 737 mmHg 94%
20:00 +14°C° 0.2 mm 2 mps 737 mmHg 93%
21:00 +14°C° 0.2 mm 2 mps 737 mmHg 91%
22:00 +13°C° 0 mm 2 mps 738 mmHg 91%
23:00 +13°C° 0 mm 2 mps 738 mmHg 90%
Mostrar más

Necesitamos Su Consentimiento

Meteoprog y nuestros Proveedores de Servicios pueden almacenar y acceder a sus datos personales como cookies, identificadores de dispositivo u otras tecnologías similares de su dispositivo y procesar dichos datos para personalizar contenido y anuncios, además de ofrecer funciones de redes sociales y analizar el tráfico.

  • Almacenar y/o acceder a información en su dispositivo

    Se puede almacenar o acceder a cookies, identificadores de dispositivo u otra información de su dispositivo para los fines anteriormente indicados.

  • Anuncios y contenido personalizados, medición de anuncios y contenido, percepciones del público, y desarrollo de productos

    Los anuncios y el contenido pueden personalizarse en base a su perfil. Se pueden añadir más datos para personalizar mejor los anuncios y contenidos. Se puede medir el rendimiento de los anuncios y contenidos. Se puede obtener la percepción sobre el público que ha visto los anuncios y contenidos. Dichos datos pueden usarse para desarrollar o mejorar la experiencia del usuario, sistemas y software.

Al hacer clic en ‘Estoy De Acuerdo’ usted permitirá el uso de las cookies, identificadores de dispositivo, balizas web u otras tecnologías similares indicadas. Su configuración puede cambiarse desde el navegador de su dispositivo.

Para ciertos fines, los intereses legítimos pueden ser considerados por encima del consentimiento. Puede leer más sobre ello en nuestra Política de Privacidad y Cookies.